Meridian, MS

1:34 AM CDT on September 27, 2016 (GMT -0500)
Key

Weather History for KMEI - February, 2013

Change the Weather History Date:

Sunday, February 24, 2013

  Actual Average Record
Temperature  
Mean Temperature 52 °F 51 °F  
Max Temperature 68 °F 63 °F 80 °F (1980)
Min Temperature 35 °F 38 °F 18 °F (1968)
Degree Days  
Heating Degree Days 13 14  
Month to date heating degree days 387 391  
Since 1 July heating degree days 1820 2028  
Cooling Degree Days 0 0  
Month to date cooling degree days 0 0  
Year to date cooling degree days 16 3  
Growing Degree Days 2 (Base 50)    
Moisture  
Dew Point 39 °F    
Average Humidity 67    
Maximum Humidity 100    
Minimum Humidity 34    
Precipitation  
Precipitation 0.00 in 0.20 in 2.10 in (1953)
Month to date precipitation 8.86 4.64  
Year to date precipitation 18.62 9.77  
Sea Level Pressure  
Sea Level Pressure 29.98 in    
Wind  
Wind Speed 5 mph (NE)    
Max Wind Speed 14 mph    
Max Gust Speed 18 mph    
Visibility 5 miles    
Events Fog    
T = Trace of Precipitation, MM = Missing Value Source: NWS Daily Summary

Daily Weather History Graph

Daily Weather History Graph

Search for Another Location

Airport or City:

Trip Planner

Search our weather history database for the weather conditions in past years. The results will help you decide how hot, cold, wet, or windy it might be!

Date:

Astronomy

Feb. 24, 2013 Rise Set
Actual Time 6:27 AM CST 5:48 PM CST
Civil Twilight 6:03 AM CST 6:13 PM CST
Nautical Twilight 5:34 AM CST 6:42 PM CST
Astronomical Twilight 5:06 AM CST 7:10 PM CST
Moon 4:59 PM CST (2/24) 5:23 AM CST (2/24)
Length of Visible Light 12h 10m
Length of Day
11h 20m
Waxing Gibbous, 99% of the Moon is Illuminated
Feb 24
Waxing Gibbous
Feb 25
Full
Mar 4
Last Quarter
Mar 11
New
Mar 19
First Quarter

Hourly Weather History & Observations

Time (CST) Temp. Windchill Dew Point Humidity Pressure Visibility Wind Dir Wind Speed Gust Speed Precip Events Conditions
12:06 AM 39.2 °F - 39.2 °F 100% 29.98 in 0.5 mi Calm Calm - N/A Fog Fog
12:13 AM 39.2 °F - 39.2 °F 100% 29.98 in 0.2 mi Calm Calm - N/A Fog Fog
12:46 AM 39.2 °F - 39.2 °F 100% 29.99 in 0.5 mi Calm Calm - N/A Fog Fog
12:55 AM 39.2 °F - 39.2 °F 100% 29.99 in 0.2 mi Calm Calm - N/A Fog Fog
12:58 AM 39.9 °F - 39.9 °F 100% 29.99 in 0.2 mi Calm Calm - N/A Fog Fog
1:30 AM 39.2 °F - 39.2 °F 100% 29.99 in 0.2 mi Calm Calm - N/A Fog Fog
1:47 AM 41.0 °F - 41.0 °F 100% 29.99 in 0.2 mi Calm Calm - N/A Fog Fog
1:58 AM 39.9 °F - 39.9 °F 100% 29.99 in 0.2 mi Calm Calm - N/A Fog Fog
2:58 AM 39.0 °F - 39.0 °F 100% 29.99 in 0.2 mi Calm Calm - N/A Fog Fog
3:56 AM 37.4 °F - 37.4 °F 100% 30.00 in 0.5 mi Calm Calm - N/A Fog Fog
3:58 AM 37.9 °F - 37.9 °F 100% 30.00 in 0.5 mi Calm Calm - N/A Fog Fog
4:10 AM 37.4 °F - 37.4 °F 100% 30.00 in 0.2 mi Calm Calm - N/A Fog Fog
4:31 AM 35.6 °F - 35.6 °F 100% 30.00 in 0.2 mi Calm Calm - N/A Fog Fog
4:49 AM 35.6 °F - 35.6 °F 100% 30.00 in 0.5 mi Calm Calm - N/A Fog Fog
4:58 AM 36.0 °F - 36.0 °F 100% 30.01 in 0.8 mi Calm Calm - N/A   Mist
5:21 AM 35.6 °F 31.7 °F 35.6 °F 100% 30.00 in 0.2 mi North 4.6 mph - N/A Fog Fog
5:27 AM 35.6 °F 31.7 °F 35.6 °F 100% 30.01 in 0.5 mi NNE 4.6 mph - N/A Fog Fog
5:35 AM 35.6 °F - 35.6 °F 100% 30.01 in 2.5 mi Calm Calm - N/A   Scattered Clouds
5:42 AM 35.6 °F - 35.6 °F 100% 30.01 in 7.0 mi Calm Calm - N/A   Partly Cloudy
5:58 AM 35.1 °F 32.2 °F 35.1 °F 100% 30.01 in 7.0 mi NE 3.5 mph - N/A   Clear
6:45 AM 35.6 °F - 35.6 °F 100% 30.02 in 1.8 mi Calm Calm - N/A   Partly Cloudy
6:47 AM 35.6 °F - 35.6 °F 100% 30.02 in 0.8 mi Calm Calm - N/A   Mist
6:58 AM 35.1 °F - 35.1 °F 100% 30.03 in 0.2 mi Calm Calm - N/A Fog Fog
7:01 AM 35.6 °F - 35.6 °F 100% 30.03 in 7.0 mi Calm Calm - N/A   Clear
7:58 AM 41.0 °F 39.0 °F 39.0 °F 93% 30.04 in 7.0 mi North 3.5 mph - N/A   Clear
8:58 AM 46.9 °F - 39.9 °F 77% 30.04 in 10.0 mi NE 6.9 mph - N/A   Clear
9:58 AM 53.1 °F - 43.0 °F 69% 30.04 in 10.0 mi NNE 5.8 mph - N/A   Clear
10:58 AM 59.0 °F - 42.1 °F 53% 30.03 in 10.0 mi NNE 6.9 mph - N/A   Clear
11:58 AM 62.1 °F - 41.0 °F 46% 30.02 in 10.0 mi NE 5.8 mph - N/A   Clear
12:58 PM 64.0 °F - 39.9 °F 41% 29.99 in 10.0 mi NNE 10.4 mph - N/A   Clear
1:58 PM 66.0 °F - 39.9 °F 38% 29.96 in 10.0 mi NNE 9.2 mph - N/A   Clear
2:58 PM 66.9 °F - 39.0 °F 36% 29.94 in 10.0 mi NNE 8.1 mph - N/A   Clear
3:58 PM 66.0 °F - 37.9 °F 36% 29.93 in 10.0 mi ENE 8.1 mph - N/A   Clear
4:58 PM 64.0 °F - 39.9 °F 41% 29.92 in 10.0 mi ENE 6.9 mph - N/A   Clear
5:58 PM 60.1 °F - 39.9 °F 47% 29.93 in 10.0 mi ENE 4.6 mph - N/A   Clear
6:58 PM 55.9 °F - 44.1 °F 64% 29.92 in 10.0 mi ENE 3.5 mph - N/A   Clear
7:58 PM 51.1 °F - 46.0 °F 83% 29.91 in 10.0 mi Calm Calm - N/A   Clear
8:58 PM 54.0 °F - 43.0 °F 66% 29.90 in 10.0 mi NE 6.9 mph - N/A   Clear
9:58 PM 54.0 °F - 42.1 °F 64% 29.88 in 10.0 mi NE 6.9 mph - N/A   Clear
10:58 PM 57.0 °F - 39.0 °F 51% 29.86 in 10.0 mi ESE 6.9 mph - N/A   Clear
11:58 PM 55.9 °F - 39.9 °F 55% 29.86 in 10.0 mi SE 3.5 mph - N/A   Scattered Clouds